Weather History for EGXG - November, 2011

Change the Weather History Date:

Tuesday, November 29, 2011

  Actual Average Record
Temperature  
Mean Temperature 50 °F -  
Max Temperature 57 °F - - ()
Min Temperature 42 °F - - ()
Degree Days  
Heating Degree Days 16    
Moisture  
Dew Point 42 °F    
Average Humidity 72    
Maximum Humidity 94    
Minimum Humidity 58    
Precipitation  
Precipitation 0.08 in - - ()
Sea Level Pressure  
Sea Level Pressure 29.57 in    
Wind  
Wind Speed 17 mph ()    
Max Wind Speed 29 mph    
Max Gust Speed 43 mph    
Visibility 6.5 miles    
Events Rain    
T = Trace of Precipitation, MM = Missing Value Source: Averaged Metar Reports

Daily Weather History Graph

Daily Weather History Graph

Search for Another Location

Airport or City:

Trip Planner

Search our weather history database for the weather conditions in past years. The results will help you decide how hot, cold, wet, or windy it might be!

Date:

Astronomy

Nov. 29, 2011 Rise Set
Actual Time 7:55 AM GMT 3:49 PM GMT
Civil Twilight 7:14 AM GMT 4:31 PM GMT
Nautical Twilight 6:29 AM GMT 5:16 PM GMT
Astronomical Twilight 5:46 AM GMT 5:58 PM GMT
Moon 11:20 AM GMT (11/29) 8:43 PM GMT (11/29)
Length of Visible Light 9h 17m
Length of Day
7h 54m
Waxing Crescent, 22% of the Moon is Illuminated
Nov 29
Waxing Crescent
Dec 2
First Quarter
Dec 10
Full
Dec 18
Last Quarter
Dec 24
New

Hourly Weather History & Observations

Time (GMT) Temp. Windchill Dew Point Humidity Pressure Visibility Wind Dir Wind Speed Gust Speed Precip Events Conditions
12:50 AM 51.8 °F - 48.2 °F 88% 29.71 in 6.2 mi South 12.7 mph - N/A   Mostly Cloudy
1:50 AM 55.4 °F - 50.0 °F 82% 29.68 in 6.2 mi South 17.3 mph - N/A   Mostly Cloudy
2:50 AM 54 °F - 49 °F 76% 29.67 in 25 mi South 12.7 mph - -   Mostly Cloudy
2:50 AM 53.6 °F - 48.2 °F 82% 29.65 in 6.2 mi South 12.7 mph - N/A   Mostly Cloudy
3:50 AM 53.6 °F - 51.8 °F 94% 29.62 in 6.2 mi South 16.1 mph - N/A Rain Light Rain Showers
5:50 AM 54 °F - 49 °F 79% 29.60 in 25 mi South 16.1 mph - - Rain Rain
5:50 AM 53.6 °F - 50.0 °F 88% 29.59 in 6.2 mi South 16.1 mph - N/A   Mostly Cloudy
7:50 AM 53.6 °F - 44.6 °F 72% 29.53 in - SSW 23.0 mph - N/A   Clear
8:50 AM 53 °F - 46 °F 69% 29.53 in 37 mi South 21.9 mph - -   Scattered Clouds
8:50 AM 53.6 °F - 46.4 °F 77% 29.50 in 6.2 mi South 21.9 mph - N/A   Mostly Cloudy
9:50 AM 53.6 °F - 46.4 °F 77% 29.47 in 6.2 mi South 26.5 mph - N/A   Mostly Cloudy
10:50 AM 53.6 °F - 46.4 °F 77% 29.44 in 6.2 mi South 21.9 mph - N/A   Mostly Cloudy
11:50 AM 55 °F - 46 °F 63% 29.43 in 37 mi SSW 23.0 mph - -   Partly Cloudy
11:50 AM 55.4 °F - 46.4 °F 72% 29.42 in 6.2 mi SSW 23.0 mph - N/A   Mostly Cloudy
12:50 PM 57.2 °F - 44.6 °F 63% 29.36 in 6.2 mi South 28.8 mph 40.3 mph N/A   Mostly Cloudy
1:50 PM 55.4 °F - 46.4 °F 72% 29.33 in 6.2 mi South 28.8 mph 42.6 mph N/A Rain Light Rain
2:50 PM 54 °F - 49 °F 78% 29.30 in 12 mi South 25.3 mph - - Rain Light Rain
3:50 PM 46.4 °F 38.1 °F 37.4 °F 71% 29.42 in 6.2 mi West 24.2 mph - N/A Rain Light Rain
4:50 PM 46.4 °F 40.7 °F 39.2 °F 76% 29.47 in 6.2 mi West 12.7 mph - N/A   Mostly Cloudy
5:50 PM 46 °F - 37 °F 60% 29.55 in 28 mi West 18.4 mph - -   Mostly Cloudy
5:50 PM 46.4 °F 39.2 °F 37.4 °F 71% 29.53 in 6.2 mi West 18.4 mph - N/A   Mostly Cloudy
6:50 PM 46.4 °F 39.2 °F 33.8 °F 62% 29.59 in 6.2 mi West 18.4 mph - N/A   Scattered Clouds
7:50 PM 44.6 °F 36.1 °F 32.0 °F 61% 29.65 in 6.2 mi West 21.9 mph - N/A   Partly Cloudy
8:50 PM 44 °F - 34 °F 58% 29.72 in 28 mi West 23.0 mph - - Rain Light Rain Showers
8:50 PM 44.6 °F 35.9 °F 33.8 °F 66% 29.71 in 6.2 mi West 23.0 mph 36.8 mph N/A Rain Light Rain Showers
9:50 PM 44.6 °F 37.2 °F 33.8 °F 66% 29.74 in 6.2 mi WSW 17.3 mph - N/A   Unknown
10:50 PM 42.8 °F 35.4 °F 33.8 °F 70% 29.77 in 6.2 mi SW 15.0 mph - N/A   Unknown
11:50 PM 43 °F - 33 °F 58% 29.81 in 25 mi SW 15.0 mph - -  
11:50 PM 42.8 °F 35.4 °F 33.8 °F 70% 29.80 in 6.2 mi SW 15.0 mph - N/A   Unknown